[[{"header":{"parameterUnit":"m.s-1","parameterCategory":1,"la1":30.2991,"la2":30.254,"lo1":-89.0895,"lo2":-89.0444,"dy":0.0017,"dx":0.0017,"nx":28,"ny":28,"refTime":"2023-08-07T09:00:00:Z","depth":0,"parameterNumber":2,"parameterNumberName":"U-component_of_WINDS"},"data":[0,0,0,0,0,0,0,0,0,0,0,0,0,0,0,0,0,0,0,0,0,0,0,0,0,0,0,0,0,0,0,0,0,0,0,0,0,0,0,0,0,0,0,0,0,0,0,0,0,0,0,0,0,0,0,0,0,0,6.1029,6.1031,0,6.1197,6.1199,6.1201,6.113,6.1126,6.1122,6.1118,6.129,6.1298,6.1306,0,0,0,0,0,0,0,0,0,0,0,0,0,6.0645,6.0652,6.1029,6.1031,6.1033,6.1197,6.1199,6.1201,6.113,6.1125,6.1121,6.1116,6.1287,6.1297,6.1307,0,0,0,0,0,0,0,0,0,0,0,0,0,6.0812,6.0654,6.1028,6.1017,6.1018,6.1196,6.1199,6.1202,6.1131,6.1125,6.1119,6.1114,6.1284,6.1296,6.1308,6.1507,0,0,6.1346,6.1352,0,0,0,0,0,0,0,0,6.0803,6.0826,6.1017,6.1018,6.102,6.1136,6.1126,6.1304,6.1133,6.1088,6.1118,6.1111,6.1243,6.1259,6.1304,6.1515,6.1522,6.1347,6.1355,6.136,6.1364,0,0,0,0,0,0,0,6.0791,6.0818,6.1095,6.102,6.1021,6.1003,6.102,6.116,6.1198,6.1092,6.1087,6.1108,6.1243,6.1292,6.1307,6.1525,6.1347,6.1358,6.1366,6.1371,6.1903,6.191,0,0,0,0,0,0,6.0779,6.0809,6.109,6.11,6.0894,6.1015,6.1034,6.1105,6.1196,6.1204,6.1113,6.1104,6.1273,6.1293,6.1313,6.1549,6.136,6.1372,6.1379,6.1897,6.1905,6.1912,0,0,0,0,0,0,6.0772,6.0805,6.1083,6.0954,6.0988,6.1028,6.1108,6.1111,6.116,6.1212,6.1218,6.1156,6.1269,6.1295,6.1458,6.1554,6.1378,6.1389,6.1889,6.1899,6.1909,6.2023,0,0,0,0,0,0,6.0761,6.0803,6.0879,6.0956,6.0995,6.1227,6.1114,6.1119,6.1182,6.1172,6.1254,6.1262,6.1267,6.144,6.1471,6.1568,6.1399,6.1881,6.1894,6.1905,6.2011,6.2036,6.2057,0,0,0,0,0,6.0747,6.0906,6.0884,6.0918,6.1091,6.1232,6.1254,6.1257,6.119,6.1266,6.1299,6.1259,6.1539,6.1457,6.1491,6.1593,6.1875,6.189,6.1904,6.2001,6.2031,6.2057,0,0,0,0,0,0,6.084,6.0916,6.0892,6.108,6.115,6.122,6.1317,6.1289,6.138,6.1367,6.1365,6.1385,6.1552,6.159,6.1497,6.1789,6.1696,6.1719,6.1758,6.1787,6.181,6.1796,6.1409,0,0,0,0,0,6.0882,6.0991,6.1051,6.1211,6.1247,6.1276,6.1338,6.1333,6.1406,6.1435,6.148,6.1552,6.1655,6.1724,6.1822,6.2017,6.2032,6.2104,6.2127,6.2146,6.2164,6.2266,6.2298,6.1961,6.1961,6.1961,0,0,6.097,6.1025,6.1094,6.1231,6.1285,6.1396,6.1302,6.1424,6.1506,6.1454,6.1609,6.1645,6.1725,6.1904,6.1985,6.194,6.2261,6.2165,6.2179,6.2188,6.2285,6.2317,6.2345,6.1971,6.197,6.1968,0,0,6.1187,6.1241,6.1379,6.1434,6.1517,6.1535,6.1568,6.1642,6.1663,6.182,6.1782,6.1879,6.2059,6.2116,6.2169,6.2406,6.2371,6.2438,6.2557,6.2657,6.2684,6.2707,6.2788,6.2818,6.2457,6.2457,6.2458,0,6.1287,6.1453,6.1453,6.1578,6.1638,6.1595,6.1733,6.1787,6.1898,6.194,6.1888,6.211,6.2162,6.2351,6.2409,6.2454,6.249,6.2428,6.268,6.2704,6.2725,6.2803,6.2834,6.2465,6.2464,6.2463,6.2462,0,6.1569,6.1685,6.1787,6.1893,6.1965,6.2096,6.2115,6.2187,6.2176,6.2199,6.2357,6.2417,6.2525,6.2571,6.2562,6.2759,6.2728,6.2679,6.2585,6.2765,6.2837,6.2867,6.2475,6.2473,6.247,6.2469,0,0,6.1849,6.1953,6.199,6.2036,6.2124,6.2213,6.2341,6.2446,6.2507,6.2585,6.2691,6.2843,6.2797,6.2857,6.2854,6.2942,6.3122,6.2881,6.2883,6.2921,6.3338,6.3373,6.3407,6.31,6.3106,6.311,6.3331,0,6.207,6.2295,6.2298,6.2504,6.2609,6.2569,6.2681,6.2745,6.277,6.2863,6.289,6.2996,6.2929,6.2964,6.305,6.3082,6.3205,6.3066,6.3196,6.3201,6.3174,6.3446,6.3483,6.3688,6.3359,6.3364,6.3368,0,6.2359,6.2444,6.266,6.2729,6.2774,6.2874,6.2969,6.3059,6.3131,6.3142,6.3208,6.3192,6.332,6.3225,6.3401,6.3306,6.336,6.3383,6.3391,6.3401,6.3293,6.346,6.3754,6.3784,6.3413,6.341,6.3406,0,6.2537,6.2706,6.2856,6.2898,6.2984,6.3054,6.3093,6.3159,6.3221,6.3305,6.3345,6.3443,6.3496,6.3571,6.3581,6.3511,6.3757,6.3663,6.3768,6.3768,6.382,6.3816,6.4123,6.386,6.3859,6.3858,6.3858,0,6.2782,6.2915,6.2937,6.303,6.3177,6.3178,6.3323,6.3356,6.3415,6.3512,6.3485,6.3576,6.3584,6.3678,6.3687,6.3829,6.3854,6.3866,6.3866,6.3867,6.3865,6.3899,6.3884,6.3867,6.3865,6.3863,6.3862,0,6.3005,6.3026,6.3186,6.3254,6.3274,6.3379,6.3435,6.3523,6.3544,6.3667,6.3696,6.373,6.3838,6.3856,6.3984,6.3989,6.4159,6.4146,6.4134,6.4132,6.4235,6.4223,6.4573,6.4617,6.4328,6.433,6.4333,0,6.3159,6.326,6.3337,6.34,6.3442,6.3544,6.3607,6.3612,6.3678,6.3767,6.3843,6.3948,6.4033,6.4208,6.4243,6.434,6.4328,6.4443,6.4342,6.4338,6.4325,6.4318,6.4326,6.4462,6.4465,6.4468,6.447,0,6.3428,6.3433,6.3525,6.362,6.3695,6.3771,6.3842,6.3895,6.3909,6.3985,6.4095,6.416,6.429,6.4394,6.449,6.4529,6.4501,6.4502,6.4531,6.4531,6.4518,6.4523,6.4184,6.4493,6.4491,6.4489,6.4488,6.4487,6.3619,6.3706,6.3773,6.3875,6.3929,6.3996,6.408,6.4111,6.4203,6.4309,6.4307,6.4427,6.4494,6.4619,6.4665,6.4758,6.472,6.4763,6.4773,6.4783,6.4791,6.4506,6.4776,6.4775,6.4775,6.4774,6.4774,0,6.3884,6.3925,6.4019,6.4119,6.4199,6.4166,6.4243,6.4311,6.4417,6.4482,6.4566,6.4691,6.4791,6.4834,6.4932,6.4999,6.4988,6.5024,6.5017,6.5026,6.4821,6.4784,6.503,6.503,6.503,6.503,6.503,6.503,6.4031,6.4175,6.4187,6.4357,6.4397,6.4514,6.456,6.462,6.4671,6.4812,6.4895,6.4922,6.4978,6.508,6.517,6.5179,6.5215,6.5256,6.526,6.5067,6.5041,6.5016,6.4982,6.5265,6.5265,6.5457,6.5459,6.546]},{"header":{"parameterUnit":"m.s-1","parameterCategory":1,"la1":30.2991,"la2":30.254,"lo1":-89.0895,"lo2":-89.0444,"dy":0.0017,"dx":0.0017,"nx":28,"ny":28,"refTime":"2023-08-07T09:00:00:Z","depth":0,"parameterNumber":3,"parameterNumberName":"V-component_of_WINDS"},"data":[0,0,0,0,0,0,0,0,0,0,0,0,0,0,0,0,0,0,0,0,0,0,0,0,0,0,0,0,0,0,0,0,0,0,0,0,0,0,0,0,0,0,0,0,0,0,0,0,0,0,0,0,0,0,0,0,0,0,1.9425,1.9426,0,1.9514,1.9515,1.9516,1.9502,1.9501,1.9499,1.9498,1.9589,1.9593,1.9597,0,0,0,0,0,0,0,0,0,0,0,0,0,1.9243,1.9247,1.9425,1.9426,1.9427,1.9513,1.9515,1.9516,1.9503,1.9501,1.9499,1.9497,1.9588,1.9592,1.9597,0,0,0,0,0,0,0,0,0,0,0,0,0,1.9326,1.9248,1.9425,1.9431,1.9432,1.9513,1.9515,1.9516,1.9503,1.9501,1.9499,1.9496,1.9586,1.9592,1.9598,1.9678,0,0,1.9615,1.9617,0,0,0,0,0,0,0,0,1.9321,1.9333,1.9429,1.9431,1.9432,1.9495,1.9484,1.957,1.9504,1.9476,1.9498,1.9495,1.9559,1.9567,1.9589,1.9682,1.9686,1.9616,1.9619,1.9621,1.9623,0,0,0,0,0,0,0,1.9316,1.9329,1.946,1.943,1.9432,1.9429,1.9438,1.95,1.9529,1.9478,1.9478,1.9488,1.956,1.9583,1.9591,1.9687,1.9615,1.962,1.9624,1.9626,1.9849,1.9852,0,0,0,0,0,0,1.9308,1.9324,1.9457,1.9463,1.937,1.9434,1.9444,1.9477,1.9529,1.9534,1.949,1.9487,1.9575,1.9584,1.9594,1.9691,1.9621,1.9627,1.963,1.9847,1.985,1.9852,0,0,0,0,0,0,1.9304,1.932,1.9454,1.9393,1.941,1.944,1.9476,1.948,1.9503,1.9538,1.9543,1.9509,1.9573,1.9586,1.9657,1.9694,1.9629,1.9635,1.9844,1.9848,1.9851,1.9885,0,0,0,0,0,0,1.9299,1.9319,1.935,1.9394,1.9413,1.9515,1.9478,1.9483,1.9513,1.951,1.9556,1.9562,1.9572,1.9648,1.9662,1.97,1.9639,1.9841,1.9845,1.985,1.9881,1.989,1.9897,0,0,0,0,0,1.9293,1.9357,1.9352,1.9368,1.9453,1.9518,1.9528,1.9539,1.9516,1.9548,1.9569,1.956,1.9687,1.9656,1.9671,1.9712,1.9838,1.9844,1.985,1.9877,1.9888,1.9897,0,0,0,0,0,0,1.9317,1.9363,1.9358,1.9438,1.9474,1.9515,1.9555,1.9551,1.9594,1.959,1.9601,1.9612,1.9683,1.9704,1.9668,1.9791,1.9759,1.9768,1.9775,1.9786,1.9793,1.9787,1.9644,0,0,0,0,0,1.9332,1.938,1.9417,1.9484,1.9503,1.9526,1.9554,1.9559,1.9597,1.9613,1.964,1.9677,1.9724,1.9756,1.9802,1.9883,1.9893,1.9919,1.9927,1.9933,1.9941,1.9985,1.9996,1.9871,1.9871,1.9871,0,0,1.9362,1.9393,1.9424,1.949,1.9519,1.9568,1.9539,1.9593,1.963,1.9621,1.9689,1.971,1.9752,1.9828,1.9863,1.9848,1.9978,1.994,1.9945,1.995,1.9992,2.0003,2.0014,1.9875,1.9874,1.9873,0,0,1.9444,1.9473,1.9531,1.956,1.9603,1.9618,1.9632,1.9673,1.9687,1.9755,1.9749,1.9793,1.9876,1.9905,1.9931,2.0022,2.0015,2.0036,2.0079,2.0121,2.0131,2.014,2.0172,2.0183,2.0044,2.0044,2.0044,0,1.9477,1.9552,1.9562,1.9617,1.9646,1.9638,1.9697,1.9725,1.9781,1.9801,1.9783,1.9886,1.9913,1.9996,2.0018,2.0039,2.0055,2.0032,2.0129,2.0138,2.0146,2.0177,2.0189,2.0046,2.0046,2.0046,2.0046,0,1.959,1.9642,1.9684,1.9738,1.9772,1.9828,1.9846,1.9878,1.988,1.9896,1.9965,1.9998,2.005,2.007,2.0072,2.0152,2.0141,2.0126,2.0095,2.016,2.0189,2.0201,2.005,2.0049,2.0048,2.0048,0,0,1.9692,1.9749,1.9764,1.9788,1.9834,1.9874,1.9929,1.998,2.0008,2.0046,2.0092,2.0161,2.0147,2.0177,2.0182,2.0219,2.0288,2.0199,2.02,2.0214,2.0377,2.0388,2.0402,2.0283,2.0285,2.0287,2.0373,0,1.9778,1.9876,1.9885,1.9974,2.0021,2.0014,2.0062,2.0095,2.0111,2.0154,2.0171,2.022,2.0198,2.0215,2.0251,2.0272,2.032,2.0265,2.0326,2.0328,2.0316,2.0417,2.043,2.051,2.0385,2.0387,2.0388,0,1.9892,1.9933,2.0026,2.0064,2.0084,2.0127,2.0174,2.0214,2.0251,2.026,2.0292,2.0292,2.0348,2.0313,2.0391,2.0353,2.0378,2.0391,2.0395,2.0401,2.0363,2.0426,2.0536,2.0548,2.0406,2.0404,2.0403,0,1.9956,2.0035,2.01,2.012,2.0167,2.0197,2.0218,2.0252,2.0281,2.0322,2.034,2.0387,2.0412,2.0447,2.0459,2.0433,2.0536,2.0503,2.0545,2.0545,2.0568,2.0566,2.0683,2.0583,2.0583,2.0583,2.0582,0,2.0052,2.0109,2.0129,2.017,2.0233,2.0242,2.0304,2.0323,2.0353,2.0397,2.0393,2.0433,2.0447,2.0489,2.0499,2.0561,2.0572,2.0581,2.0583,2.0582,2.0581,2.0599,2.0594,2.0586,2.0585,2.0585,2.0584,0,2.0135,2.0151,2.0221,2.0259,2.0269,2.0314,2.0346,2.0384,2.0399,2.0453,2.0467,2.049,2.054,2.0555,2.0615,2.0621,2.0694,2.0691,2.0681,2.0682,2.0723,2.0719,2.0856,2.0874,2.0762,2.0763,2.0764,0,2.0195,2.0238,2.028,2.0309,2.033,2.0376,2.0406,2.0416,2.0447,2.0491,2.0524,2.0573,2.0613,2.0692,2.0714,2.076,2.0758,2.0802,2.0765,2.0762,2.0758,2.0756,2.076,2.081,2.0811,2.0812,2.0813,0,2.03,2.0305,2.0348,2.0393,2.0428,2.0464,2.0499,2.0522,2.0537,2.0572,2.0623,2.0653,2.0714,2.0763,2.0808,2.0829,2.0823,2.0824,2.0836,2.0836,2.0829,2.0833,2.0701,2.0821,2.082,2.082,2.0819,2.0819,2.0373,2.0411,2.0446,2.0493,2.052,2.0552,2.059,2.0608,2.0651,2.0701,2.0704,2.0759,2.0793,2.0854,2.0876,2.0919,2.0906,2.0924,2.0928,2.0932,2.0936,2.0821,2.0927,2.0927,2.0927,2.0926,2.0926,0,2.0478,2.0499,2.0543,2.0591,2.0628,2.0618,2.0656,2.0687,2.0735,2.0768,2.0807,2.0864,2.091,2.0935,2.0981,2.101,2.1009,2.1022,2.102,2.1025,2.0945,2.093,2.1023,2.1023,2.1023,2.1023,2.1023,2.1023,2.0537,2.06,2.0609,2.0685,2.0706,2.076,2.0782,2.0811,2.0836,2.0901,2.0939,2.0955,2.0984,2.1032,2.1074,2.1079,2.1097,2.1112,2.1116,2.1041,2.1031,2.1022,2.1007,2.1115,2.1115,2.1193,2.1194,2.1194]}]]